[[{"header":{"parameterUnit":"m.s-1","parameterCategory":1,"la1":30.2991,"la2":30.254,"lo1":-89.0895,"lo2":-89.0444,"dy":0.0017,"dx":0.0017,"nx":28,"ny":28,"refTime":"2025-07-24T21:00:00:Z","depth":0,"parameterNumber":2,"parameterNumberName":"U-component_of_WINDS"},"data":[0,0,0,0,0,0,0,0,0,0,0,0,0,0,0,0,0,0,0,0,0,0,0,0,0,0,0,0,0,0,0,0,0,0,0,0,0,0,0,0,0,0,0,0,0,0,0,0,0,0,0,0,0,0,0,0,0,0,-2.9686,-2.9684,0,-2.9532,-2.953,-2.9529,-2.9415,-2.9414,-2.9413,-2.9412,-2.9253,-2.925,-2.9247,0,0,0,0,0,0,0,0,0,0,0,0,0,-2.988,-2.9877,-2.9686,-2.9684,-2.9682,-2.9532,-2.953,-2.9528,-2.9415,-2.9414,-2.9413,-2.9412,-2.9254,-2.9251,-2.9247,0,0,0,0,0,0,0,0,0,0,0,0,0,-2.9768,-2.9876,-2.9686,-2.9607,-2.9599,-2.9533,-2.953,-2.9528,-2.9415,-2.9414,-2.9412,-2.9411,-2.9256,-2.9251,-2.9246,-2.9245,0,0,-2.9231,-2.9229,0,0,0,0,0,0,0,0,-2.9775,-2.9761,-2.9621,-2.9613,-2.9603,-2.9491,-2.9541,-2.9433,-2.9416,-2.9485,-2.9412,-2.941,-2.9334,-2.9322,-2.9297,-2.9238,-2.9231,-2.923,-2.9227,-2.9225,-2.9224,0,0,0,0,0,0,0,-2.9783,-2.9767,-2.9625,-2.9619,-2.9608,-2.958,-2.9562,-2.952,-2.9419,-2.9479,-2.947,-2.9454,-2.9328,-2.9302,-2.9292,-2.9229,-2.9231,-2.9226,-2.9223,-2.9221,-2.9162,-2.9164,0,0,0,0,0,0,-2.9803,-2.9774,-2.963,-2.962,-2.9687,-2.9578,-2.9558,-2.9529,-2.942,-2.9402,-2.9455,-2.9449,-2.9311,-2.9298,-2.9286,-2.9277,-2.9225,-2.9221,-2.9218,-2.9161,-2.9163,-2.9164,0,0,0,0,0,0,-2.9808,-2.9791,-2.9636,-2.9695,-2.9673,-2.9576,-2.9544,-2.9526,-2.9499,-2.9402,-2.9383,-2.9446,-2.9309,-2.9293,-2.9256,-2.927,-2.9219,-2.9214,-2.9159,-2.9161,-2.9163,-2.926,0,0,0,0,0,0,-2.9814,-2.9793,-2.9792,-2.9696,-2.967,-2.9609,-2.9545,-2.9524,-2.9491,-2.9482,-2.9388,-2.9371,-2.9307,-2.9264,-2.9252,-2.9262,-2.921,-2.9157,-2.916,-2.9163,-2.9256,-2.9266,-2.9274,0,0,0,0,0,-2.9821,-2.9825,-2.9792,-2.9776,-2.9667,-2.961,-2.9595,-2.9521,-2.9493,-2.949,-2.9428,-2.9374,-2.9272,-2.9262,-2.9246,-2.9256,-2.9156,-2.9159,-2.9162,-2.9251,-2.9264,-2.9274,0,0,0,0,0,0,-2.9924,-2.9811,-2.9773,-2.9747,-2.9689,-2.9591,-2.9585,-2.9537,-2.9485,-2.9478,-2.9388,-2.9368,-2.9341,-2.9295,-2.9286,-2.925,-2.9207,-2.9207,-2.928,-2.9291,-2.93,-2.9311,-2.9206,0,0,0,0,0,-2.9944,-2.9908,-2.9811,-2.9797,-2.977,-2.9684,-2.9656,-2.9604,-2.954,-2.9515,-2.945,-2.939,-2.9344,-2.9315,-2.9268,-2.925,-2.9227,-2.9249,-2.9258,-2.9267,-2.9267,-2.9254,-2.9262,-2.9174,-2.9174,-2.9174,0,0,-2.9984,-2.9918,-2.99,-2.9816,-2.9765,-2.9729,-2.9663,-2.9628,-2.96,-2.9509,-2.947,-2.9422,-2.9349,-2.9322,-2.9306,-2.9282,-2.9287,-2.9271,-2.9278,-2.9273,-2.9258,-2.9266,-2.9273,-2.9177,-2.9176,-2.9176,0,0,-3.0038,-2.9985,-2.9967,-2.9918,-2.9843,-2.9785,-2.9782,-2.9692,-2.9655,-2.9616,-2.9547,-2.9513,-2.9436,-2.9387,-2.9352,-2.9392,-2.934,-2.9379,-2.9426,-2.9415,-2.9421,-2.9427,-2.944,-2.9445,-2.938,-2.938,-2.9381,0,-3.0096,-3.004,-2.9964,-2.9933,-2.9897,-2.9816,-2.9797,-2.9753,-2.9666,-2.9643,-2.9619,-2.9521,-2.9466,-2.9426,-2.9436,-2.9411,-2.9403,-2.9387,-2.9427,-2.9432,-2.9436,-2.9447,-2.9452,-2.9385,-2.9385,-2.9384,-2.9384,0,-3.0115,-3.0078,-3.0072,-2.9991,-2.9956,-2.9931,-2.9851,-2.9825,-2.9778,-2.9723,-2.9684,-2.9617,-2.9554,-2.9541,-2.9494,-2.9495,-2.9482,-2.9444,-2.9399,-2.945,-2.9459,-2.9463,-2.9393,-2.9391,-2.9389,-2.9388,0,0,-3.0226,-3.0105,-3.0104,-3.0066,-2.9979,-2.9948,-2.9921,-2.986,-2.9839,-2.9783,-2.9757,-2.9695,-2.9659,-2.962,-2.9567,-2.9557,-2.9592,-2.9519,-2.9516,-2.9533,-2.9587,-2.9615,-2.9621,-2.9559,-2.9559,-2.956,-2.9593,0,-3.0264,-3.021,-3.0142,-3.011,-3.0074,-2.9998,-2.9974,-2.9918,-2.9868,-2.983,-2.9774,-2.9731,-2.9688,-2.9663,-2.9651,-2.959,-2.9601,-2.9587,-2.9532,-2.9531,-2.955,-2.9626,-2.9654,-2.9689,-2.9596,-2.9596,-2.9597,0,-3.03,-3.0249,-3.0215,-3.0131,-3.0114,-3.0093,-3.0033,-2.9998,-2.9934,-2.9898,-2.9856,-2.98,-2.9767,-2.973,-2.9683,-2.9675,-2.9649,-2.9617,-2.9617,-2.9606,-2.9565,-2.9615,-2.9698,-2.9703,-2.9602,-2.9601,-2.9601,0,-3.0382,-3.0305,-3.0274,-3.0245,-3.0147,-3.0135,-3.0093,-3.0027,-2.9996,-2.9944,-2.9922,-2.9868,-2.9837,-2.9796,-2.9727,-2.9706,-2.9687,-2.9644,-2.9656,-2.9657,-2.9652,-2.9652,-2.9729,-2.9641,-2.9641,-2.964,-2.964,0,-3.043,-3.0412,-3.031,-3.029,-3.0268,-3.0191,-3.017,-3.0122,-3.0065,-3.0035,-2.9967,-2.994,-2.9852,-2.9815,-2.9761,-2.973,-2.9717,-2.9687,-2.9672,-2.9691,-2.9695,-2.967,-2.9665,-2.9642,-2.9641,-2.9641,-2.9641,0,-3.0516,-3.0447,-3.0408,-3.032,-3.0298,-3.0285,-3.0209,-3.0188,-3.0135,-3.0098,-3.0085,-3.0002,-2.9955,-2.9884,-2.9815,-2.9779,-2.9757,-2.9734,-2.9778,-2.9769,-2.9784,-2.9782,-2.9845,-2.9849,-2.9761,-2.9762,-2.9763,0,-3.0549,-3.0533,-3.0444,-3.042,-3.0381,-3.0343,-3.0311,-3.0236,-3.0205,-3.0132,-3.0119,-3.0068,-3.0022,-2.9952,-2.9885,-2.9833,-2.9807,-2.9833,-2.9798,-2.9818,-2.9804,-2.9805,-2.9803,-2.9839,-2.9841,-2.9842,-2.9843,0,-3.0616,-3.0583,-3.054,-3.0486,-3.045,-3.0403,-3.0353,-3.0337,-3.0251,-3.022,-3.0172,-3.0137,-3.0069,-3.0018,-2.9957,-2.9914,-2.9864,-2.9855,-2.9854,-2.9872,-2.9897,-2.9882,-2.9797,-2.9853,-2.9852,-2.9851,-2.985,-2.985,-3.0674,-3.0657,-3.0592,-3.0546,-3.0501,-3.0457,-3.0432,-3.0378,-3.0336,-3.0275,-3.0234,-3.0188,-3.0125,-3.0039,-2.9999,-2.9962,-2.994,-2.994,-2.9939,-2.994,-2.9946,-2.9907,-2.9952,-2.9951,-2.9951,-2.995,-2.995,0,-3.0735,-3.069,-3.065,-3.0582,-3.0547,-3.0505,-3.0449,-3.0421,-3.0382,-3.0329,-3.0286,-3.0231,-3.0183,-3.0114,-3.006,-3.0044,-3.0019,-3.0032,-3.0031,-3.0022,-2.997,-2.9974,-3.0053,-3.0053,-3.0053,-3.0053,-3.0053,-3.0053,-3.0762,-3.073,-3.069,-3.0636,-3.0591,-3.0546,-3.0517,-3.0476,-3.0432,-3.0375,-3.0334,-3.029,-3.0231,-3.0172,-3.0126,-3.0107,-3.0089,-3.0109,-3.0083,-3.0035,-3.0025,-3.0016,-3.002,-3.0106,-3.0107,-3.0137,-3.0137,-3.0137]},{"header":{"parameterUnit":"m.s-1","parameterCategory":1,"la1":30.2991,"la2":30.254,"lo1":-89.0895,"lo2":-89.0444,"dy":0.0017,"dx":0.0017,"nx":28,"ny":28,"refTime":"2025-07-24T21:00:00:Z","depth":0,"parameterNumber":3,"parameterNumberName":"V-component_of_WINDS"},"data":[0,0,0,0,0,0,0,0,0,0,0,0,0,0,0,0,0,0,0,0,0,0,0,0,0,0,0,0,0,0,0,0,0,0,0,0,0,0,0,0,0,0,0,0,0,0,0,0,0,0,0,0,0,0,0,0,0,0,1.0813,1.0813,0,1.0787,1.0786,1.0786,1.0739,1.0738,1.0737,1.0736,1.0709,1.0709,1.0709,0,0,0,0,0,0,0,0,0,0,0,0,0,1.0825,1.0825,1.0814,1.0813,1.0813,1.0787,1.0786,1.0786,1.0739,1.0738,1.0737,1.0736,1.0709,1.0709,1.0709,0,0,0,0,0,0,0,0,0,0,0,0,0,1.0811,1.0825,1.0814,1.0786,1.0783,1.0787,1.0786,1.0786,1.0739,1.0738,1.0736,1.0735,1.0709,1.0709,1.0709,1.0737,0,0,1.071,1.071,0,0,0,0,0,0,0,0,1.0812,1.0811,1.0791,1.0788,1.0785,1.0765,1.078,1.0769,1.0739,1.0756,1.0736,1.0734,1.0728,1.0727,1.0725,1.0736,1.0734,1.071,1.071,1.071,1.071,0,0,0,0,0,0,0,1.0813,1.0812,1.0803,1.079,1.0787,1.0776,1.0772,1.0778,1.075,1.0754,1.0751,1.0748,1.0727,1.0725,1.0724,1.0734,1.071,1.071,1.071,1.071,1.0768,1.0769,0,0,0,0,0,0,1.0818,1.0813,1.0804,1.0802,1.0796,1.0776,1.0773,1.0773,1.075,1.0745,1.0749,1.0746,1.0725,1.0724,1.0723,1.0755,1.071,1.071,1.071,1.0766,1.0768,1.0769,0,0,0,0,0,0,1.0818,1.0818,1.0805,1.0807,1.0804,1.0778,1.0778,1.0773,1.0771,1.0746,1.0741,1.0753,1.0724,1.0722,1.0734,1.0753,1.071,1.071,1.0764,1.0767,1.0769,1.0819,0,0,0,0,0,0,1.0819,1.0818,1.0828,1.0807,1.0804,1.0816,1.0779,1.0773,1.0771,1.0767,1.0748,1.0743,1.0723,1.0734,1.0734,1.0753,1.071,1.0763,1.0765,1.0768,1.0816,1.0823,1.0829,0,0,0,0,0,1.082,1.0843,1.0829,1.0828,1.0816,1.0818,1.0816,1.0792,1.0773,1.0783,1.0767,1.0744,1.0751,1.0736,1.0735,1.0754,1.0761,1.0765,1.0768,1.0813,1.0821,1.0829,0,0,0,0,0,0,1.0867,1.084,1.0824,1.0841,1.0832,1.081,1.0822,1.0801,1.0798,1.0794,1.0764,1.076,1.0776,1.0766,1.0749,1.0781,1.0753,1.0756,1.0787,1.0795,1.0801,1.0804,1.071,0,0,0,0,0,1.088,1.0883,1.0859,1.0877,1.0873,1.0848,1.0848,1.083,1.082,1.0816,1.0801,1.0791,1.0792,1.0792,1.0791,1.0814,1.081,1.0826,1.0833,1.0839,1.0842,1.0855,1.0863,1.078,1.078,1.078,0,0,1.0906,1.0891,1.0895,1.0886,1.0877,1.0882,1.0845,1.0851,1.0855,1.0816,1.0827,1.0816,1.0803,1.0821,1.0828,1.0813,1.0864,1.0843,1.0847,1.0848,1.0859,1.0867,1.0874,1.0782,1.0782,1.0782,0,0,1.0956,1.0944,1.0959,1.095,1.0937,1.0921,1.0924,1.0905,1.0896,1.0906,1.0878,1.0881,1.0882,1.0874,1.0871,1.0919,1.0898,1.0919,1.0954,1.0967,1.0973,1.0979,1.0998,1.1005,1.0923,1.0923,1.0923,0,1.099,1.0995,1.0969,1.0977,1.0974,1.094,1.0954,1.0948,1.0935,1.0934,1.0917,1.0918,1.0907,1.0924,1.0935,1.0933,1.0937,1.0922,1.0975,1.098,1.0985,1.1002,1.1009,1.0926,1.0925,1.0925,1.0925,0,1.1039,1.1043,1.1056,1.1045,1.1043,1.1055,1.103,1.1032,1.1015,1.1,1.1011,1.0997,1.0993,1.0995,1.0978,1.1009,1.1001,1.098,1.0951,1.0996,1.1012,1.1019,1.093,1.0929,1.0928,1.0927,0,0,1.1118,1.1092,1.1098,1.1093,1.1076,1.1079,1.1089,1.1085,1.1088,1.108,1.1089,1.109,1.1071,1.1067,1.1049,1.106,1.1101,1.1037,1.1037,1.1051,1.1136,1.1154,1.1162,1.1086,1.1087,1.1088,1.1138,0,1.1166,1.1182,1.1158,1.118,1.1184,1.1152,1.1161,1.1152,1.1139,1.1141,1.1126,1.1128,1.1102,1.1099,1.1109,1.1094,1.1118,1.109,1.1095,1.1096,1.1101,1.117,1.1188,1.1235,1.1144,1.1145,1.1146,0,1.1223,1.1219,1.1241,1.1224,1.1225,1.1234,1.1229,1.1231,1.122,1.121,1.1206,1.1184,1.1193,1.1165,1.1178,1.116,1.116,1.1153,1.1155,1.1155,1.1125,1.1174,1.125,1.1258,1.1155,1.1154,1.1154,0,1.1281,1.1281,1.1294,1.1291,1.1271,1.1278,1.127,1.1257,1.1257,1.1253,1.1252,1.1249,1.1248,1.1246,1.1224,1.1205,1.1241,1.121,1.1234,1.1234,1.1244,1.1244,1.1323,1.1241,1.1241,1.1241,1.1241,0,1.1338,1.1353,1.132,1.1329,1.1346,1.1318,1.1335,1.1324,1.1314,1.132,1.1291,1.1298,1.1268,1.1271,1.1254,1.1269,1.1268,1.1261,1.1256,1.1264,1.1265,1.1265,1.1262,1.1243,1.1243,1.1242,1.1242,0,1.1406,1.1384,1.1397,1.1377,1.1373,1.1386,1.1369,1.1376,1.1361,1.1369,1.137,1.1346,1.1349,1.1327,1.1325,1.1314,1.1337,1.1326,1.1341,1.1338,1.1364,1.1363,1.1447,1.1457,1.1368,1.1369,1.137,0,1.1444,1.1455,1.1437,1.1439,1.1432,1.1436,1.1436,1.1409,1.141,1.1399,1.1408,1.1409,1.1408,1.1414,1.1397,1.1396,1.1386,1.1415,1.1385,1.1394,1.1389,1.1389,1.1391,1.1422,1.1423,1.1424,1.1425,0,1.1515,1.1504,1.1504,1.1502,1.1502,1.1498,1.1493,1.1496,1.1468,1.147,1.1473,1.1472,1.1471,1.1473,1.1468,1.146,1.1439,1.1434,1.144,1.1449,1.1459,1.1456,1.136,1.1433,1.1432,1.1431,1.1431,1.1431,1.157,1.1579,1.1568,1.157,1.1563,1.1559,1.1566,1.1551,1.1553,1.155,1.1534,1.154,1.153,1.1522,1.1516,1.1521,1.1507,1.1515,1.1517,1.152,1.1526,1.1456,1.152,1.152,1.1519,1.1519,1.1519,0,1.1641,1.1633,1.1634,1.1628,1.163,1.1609,1.1602,1.1605,1.161,1.1603,1.1603,1.1606,1.1608,1.1591,1.159,1.1597,1.1588,1.1598,1.1599,1.1598,1.1537,1.1533,1.1606,1.1606,1.1606,1.1606,1.1606,1.1606,1.1679,1.1694,1.1681,1.1693,1.1684,1.1689,1.1688,1.1684,1.1678,1.1683,1.1685,1.1673,1.1662,1.1661,1.1662,1.1657,1.1659,1.1673,1.1665,1.161,1.1601,1.1593,1.159,1.1673,1.1674,1.1725,1.1726,1.1726]}]]